Flag for Japan Weather past 2 weeks in Himeji, Japan

Now
39 °F

Partly cloudy.


Feels Like: 32 °F
Forecast: 33 / 42 °F
Wind: 10 mph from West

Location: Kansai International Airport

Current Time: Dec 22, 2014 at 2:43:00 AM

Latest Report: Dec 22, 2014 at 2:00 AM


Visibility: N/A

Pressure: 30.04 "Hg

Humidity: 45%

Dew point: 19 °F

Location of HimejiLocation

Historic Weather in Himeji — Graph

°F

Himeji temperature yesterday

Maximum temperature yesterday: 48 °F (at 12:00 AM)
Minimum temperature yesterday: 41 °F (at 10:00 PM)
Average temperature yesterday: 45 °F

Past Weeks' High & Low Weather Summary

 TemperatureHumidityPressure
High55 °F (Dec 9, 3:00 PM)94% (Dec 11, 9:00 AM)30.51 "Hg (Dec 11, 9:00 AM)
Low36 °F (Dec 17, 7:30 AM)31% (Dec 13, 5:00 PM)29.65 "Hg (Dec 16, 12:30 PM)
Average45 °F56%30.14 "Hg
* Reported Dec 7 1:00 AM — Dec 22 1:30 AM, Himeji, Weather by CustomWeather, © 2014

Note: Actual official high and low records may vary slightly from our data, if they occured in-between our weather recording intervals... More about our weather records

Advertising

Himeji weather history for previous 24 hours

 ConditionsComfort  
Time TempWeatherWind HumidityBarometerVisibility
1:30 AM
Dec 22
39 °FPartly cloudy.12 mph42%30.04 "HgN/A
1:00 AM39 °FPartly cloudy.10 mph45%30.04 "HgN/A
12:30 AM39 °FPassing clouds.14 mph45%30.04 "HgN/A
12:00 AM39 °FPassing clouds.13 mph45%30.04 "HgN/A
11:30 PM
Dec 21
41 °FPassing clouds.15 mph39%30.04 "HgN/A
11:00 PM41 °FPartly cloudy.14 mph42%30.04 "HgN/A
10:30 PM41 °FPartly cloudy.14 mph45%30.04 "HgN/A
10:00 PM41 °FMostly cloudy.14 mph45%30.04 "HgN/A
9:30 PM43 °FOvercast.14 mph46%30.04 "HgN/A
9:00 PM43 °FMostly cloudy.12 mph49%30.04 "HgN/A
8:30 PM43 °FMostly cloudy.12 mph49%30.04 "HgN/A
8:00 PM43 °FOvercast.14 mph46%30.04 "HgN/A
7:30 PM43 °FOvercast.17 mph42%30.01 "HgN/A
7:00 PM43 °FOvercast.20 mph46%30.04 "HgN/A
6:30 PM45 °FMostly cloudy.23 mph39%30.04 "HgN/A
6:00 PM45 °FMostly cloudy.23 mph42%30.01 "HgN/A
5:30 PM45 °FMostly cloudy.23 mph46%30.01 "HgN/A
5:00 PM45 °FOvercast.22 mph46%29.98 "HgN/A
4:30 PM46 °FOvercast.20 mph50%30.01 "HgN/A
4:00 PM46 °FOvercast.23 mph46%30.01 "HgN/A
3:30 PM46 °FPartly sunny.18 mph46%29.98 "HgN/A
3:00 PM46 °FPartly sunny.22 mph46%29.95 "HgN/A
2:30 PM46 °FPartly sunny.18 mph46%29.98 "HgN/A
2:00 PM48 °FPartly sunny.18 mph43%29.98 "HgN/A
1:30 PM48 °FPartly sunny.17 mph43%29.98 "HgN/A
1:00 PM48 °FPartly sunny.16 mph50%29.98 "HgN/A
12:30 PM46 °FBroken clouds.14 mph53%30.01 "HgN/A
12:00 PM48 °FBroken clouds.13 mph54%30.01 "HgN/A
11:30 AM48 °FScattered clouds.14 mph50%30.01 "HgN/A
11:00 AM46 °FScattered clouds.13 mph57%30.04 "HgN/A
10:30 AM48 °FPassing clouds.13 mph54%30.04 "HgN/A
10:00 AM48 °FPassing clouds.14 mph54%30.04 "HgN/A
9:00 AM46 °FPassing clouds.14 mph57%30.04 "HgN/A
8:30 AM46 °FPassing clouds.14 mph57%30.01 "HgN/A
8:00 AM46 °FPassing clouds.14 mph62%30.04 "HgN/A
7:30 AM45 °FPassing clouds.14 mph66%30.04 "HgN/A
7:00 AM45 °FPassing clouds.14 mph61%30.04 "HgN/A
6:30 AM45 °FPassing clouds.12 mph61%30.04 "HgN/A
5:30 AM45 °FPassing clouds.14 mph61%30.01 "HgN/A
5:00 AM45 °FPassing clouds.15 mph66%30.01 "HgN/A
4:30 AM46 °FPassing clouds.16 mph62%30.01 "HgN/A
4:00 AM45 °FPassing clouds.16 mph61%30.01 "HgN/A
3:30 AM46 °FPassing clouds.16 mph57%30.01 "HgN/A
3:00 AM46 °FPassing clouds.17 mph57%30.01 "HgN/A
2:30 AM46 °FPassing clouds.17 mph57%30.01 "HgN/A
2:00 AM46 °FPassing clouds.17 mph57%30.01 "HgN/A
Weather by CustomWeather, © 2014

See weather overviewHow to use our weather pages